This demonstration page uses our WeatherBlox Daily Observations layout. Learn more.

Left ArrowRight Arrow

39.92423, -83.80882

Hourly Observations for March 25, 2019

Temp ( °F °C ) Dew Point ( °F °C ) Humidity (%) Winds ( mph kmh ) Pressure ( in mb ) Visibility ( mi km ) Precip ( " mm )
1:31 am 01:31 Cloudy 46 8 45 7 93 93 NE 8 13 30.07 1018 7 11.26538 0 0
1:42 am 01:42 Cloudy 45 7 45 7 100 100 NE 9 15 30.07 1018 7 11.26538 0 0
1:56 am 01:56 Cloudy 45 7.2 45 7.2 100 100 NE 10 17 30.06 1018 7 11.26538 0 0
2:56 am 02:56 Cloudy with Light Rain 44 6.7 44 6.7 100 100 NE 13 20 30.05 1018 7 11.26538 0.01 0.254
3:56 am 03:56 Cloudy with Rain 43 6.1 43 6.1 100 100 ENE 7 11 30.05 1018 4 6.43736 0.13 3.302
4:07 am 04:07 Cloudy with Rain 43 6 43 6 100 100 E 6 9 30.07 1018 4 6.43736 0.02 0.508
4:42 am 04:42 Cloudy with Light Rain 43 6 43 6 100 100 ENE 10 17 30.05 1018 5 8.0467 0.08 2.032
4:56 am 04:56 Cloudy with Light Rain 43 6.1 43 6.1 100 100 E 8 13 30.03 1017 6 9.65604 0.1 2.54
5:54 am 05:54 Cloudy with Light Rain 43 6 43 6 100 100 ENE 10 17 30.03 1017 7 11.26538 0.1 2.54
5:56 am 05:56 Cloudy with Light Rain 43 6.1 43 6.1 100 100 ENE 10 17 30.02 1017 7 11.26538 0.1 2.54
6:03 am 06:03 Cloudy with Light Rain 43 6 43 6 100 100 ENE 9 15 30.03 1017 8 12.87472 0 0.0254
6:15 am 06:15 Cloudy with Light Rain 43 6 43 6 100 100 ENE 13 20 30.03 1017 8 12.87472 0.02 0.508
6:56 am 06:56 Cloudy with Light Rain 43 6.1 42 5.6 97 97 ENE 13 20 30.01 1016 6 9.65604 0.05 1.27
7:56 am 07:56 Cloudy with Light Rain 43 6.1 42 5.6 97 97 ENE 14 22 30.01 1016 5 8.0467 0.06 1.524
8:04 am 08:04 Cloudy with Light Rain 43 6 43 6 100 100 ENE 14 22 30.03 1017 5 8.0467 0.01 0.254
8:14 am 08:14 Cloudy with Light Rain 43 6 43 6 100 100 NE 15 24 30.03 1017 4 6.43736 0.02 0.508
8:56 am 08:56 Cloudy with Light Rain 42 5.6 42 5.6 100 100 NE 17 28 30.03 1017 4 6.43736 0.05 1.27
9:28 am 09:28 Cloudy with Light Rain 39 4 39 4 100 100 NNE 17 28 30.07 1018 6 9.65604 0.02 0.508
9:56 am 09:56 Cloudy with Light Rain 38 3.3 37 2.8 97 97 NE 14 22 30.07 1018 5 8.0467 0.03 0.762
10:42 am 10:42 Cloudy with Light Rain 37 3 37 3 100 100 NNE 16 26 30.1 1019 5 8.0467 0.04 1.016
10:56 am 10:56 Cloudy with Light Rain 37 2.8 37 2.8 100 100 NNE 14 22 30.08 1019 5 8.0467 0.06 1.524
11:56 am 11:56 Cloudy with Light Rain 37 2.8 36 2.2 96 96 NNE 14 22 30.1 1019 7 11.26538 0.01 0.254
12:56 pm 12:56 Cloudy with Light Rain 38 3.3 36 2.2 93 93 NNE 18 30 30.1 1019 9 14.48406 0.02 0.508
1:56 pm 13:56 Cloudy with Light Rain 37 2.8 36 2.2 96 96 NE 16 26 30.11 1020 8 12.87472 0.02 0.508
2:37 pm 14:37 Cloudy with Light Rain 39 4 37 3 93 93 NE 15 24 30.12 1020 10 16.0934 0.03 0.762
2:56 pm 14:56 Cloudy with Light Rain 39 3.9 37 2.8 93 93 NNE 17 28 30.11 1020 10 16.0934 0.03 0.762
3:35 pm 15:35 Cloudy 41 5 37 3 87 87 NNE 18 30 30.11 1020 10 16.0934 0 0.0254
3:45 pm 15:45 Cloudy 41 5 37 3 87 87 NNE 16 26 30.11 1020 10 16.0934 0 0.0254
3:56 pm 15:56 Cloudy 42 5.6 38 3.3 85 85 NE 17 28 30.1 1019 10 16.0934 0 0.0254
4:34 pm 16:34 Cloudy 45 7 37 3 76 76 NNE 20 31 30.09 1019 10 16.0934 0 0
4:42 pm 16:42 Cloudy 45 7 36 2 71 71 NNE 22 35 30.09 1019 10 16.0934 0 0
4:56 pm 16:56 Mostly Cloudy 44 6.7 35 1.7 71 71 NE 20 31 30.1 1019 10 16.0934 0 0
5:56 pm 17:56 Sunny 45 7.2 29 -1.7 54 54 NNE 17 28 30.11 1020 10 16.0934 0 0
6:56 pm 18:56 Sunny 41 5 21 -6.1 45 45 NNE 20 31 30.15 1021 10 16.0934 0 0
7:56 pm 19:56 Clear 37 2.8 15 -9.4 41 41 NNE 18 30 30.18 1022 10 16.0934 0 0
8:56 pm 20:56 Clear 35 1.7 19 -7.2 52 52 NNE 12 19 30.22 1023 10 16.0934 0 0
10:56 pm 22:56 Clear 32 0 21 -6.1 64 64 NE 13 20 30.25 1025 10 16.0934 0 0
11:56 pm 23:56 Clear 31 -0.6 19 -7.2 61 61 NE 14 22 30.27 1025 10 16.0934 0 0

Powered by AerisWeather